Theta_e
309 307 312 318 321 321 320 322 322 325 323 321 319 323 327 327 330 326 319 322 322 321 321 322 324 325 326 327 330 331 331 333 334 335 335 332 332 331 332 332 330 329 326 326 329 331 332 332 333
309 308 314 320 319 320 320 322 323 325 322 323 322 323 325 326 321 319 319 321 320 320 320 319 318 318 317 317 317 320 325 329 330 333 335 334 332 332 332 331 331 329 327 324 325 326 327 328 329
309 311 318 320 320 320 320 321 322 320 321 323 323 321 324 324 318 318 319 320 319 318 318 318 317 316 315 313 312 311 312 313 319 325 329 333 334 332 332 331 331 330 325 321 327 326 325 325 322
312 316 317 320 320 320 320 321 321 319 316 318 320 323 319 319 318 317 320 319 317 317 317 316 313 310 309 309 309 309 309 309 310 310 315 326 331 332 332 331 331 330 329 325 326 327 325 325 325
313 316 318 320 320 320 319 318 319 320 319 317 319 321 320 317 319 319 318 317 316 315 314 311 309 308 308 308 307 306 307 308 309 309 309 310 319 328 331 330 331 331 330 328 327 326 326 325 324
316 317 318 319 319 318 318 317 317 318 318 316 316 318 318 315 317 317 317 315 314 313 310 309 308 306 304 303 303 303 303 303 303 303 306 308 309 313 325 330 329 330 330 330 327 326 326 324 323
318 319 319 318 319 318 318 315 316 318 317 317 315 317 316 313 314 315 314 314 313 310 308 308 305 303 303 303 303 303 303 302 302 302 302 303 306 309 310 321 328 328 329 329 329 327 326 324 324
317 319 318 318 319 319 316 315 314 315 317 313 315 317 317 314 313 313 313 312 311 309 308 306 304 303 302 303 303 302 302 301 301 301 302 302 303 305 308 309 319 326 327 328 329 327 326 325 324
315 318 319 318 316 317 314 316 314 313 314 313 314 314 313 312 312 312 312 311 311 308 306 305 303 303 303 303 303 302 301 301 301 303 305 306 305 305 306 308 310 320 326 326 328 328 326 325 323
317 318 318 315 314 315 315 315 315 315 315 314 314 313 313 312 311 312 312 311 309 307 306 305 304 303 302 302 302 302 301 301 303 308 310 310 309 308 308 308 308 312 322 326 326 327 326 325 323
313 317 313 313 314 314 315 314 314 315 316 316 316 315 312 312 311 311 312 311 308 307 306 305 305 303 302 301 301 301 301 304 308 309 309 309 308 309 308 308 308 309 318 324 325 327 326 325 323
313 312 312 314 314 314 315 314 315 314 316 314 314 312 312 311 311 312 312 309 308 307 306 306 305 303 301 301 301 301 304 308 309 309 309 309 309 308 308 307 308 309 315 323 325 326 326 323 320
314 314 313 313 313 313 313 314 314 314 313 313 312 312 312 311 311 312 310 309 308 307 307 306 305 302 301 301 301 303 309 310 309 309 308 308 307 307 307 308 307 308 315 323 325 325 324 319 318
313 313 314 313 313 313 313 314 311 313 311 312 311 311 312 312 312 311 309 309 309 308 307 306 305 301 300 301 304 307 309 310 309 309 309 309 308 307 306 307 307 309 318 321 325 325 322 318 317
313 315 314 313 313 314 312 314 313 314 311 311 311 311 311 311 311 310 310 309 309 308 307 306 305 301 301 306 308 309 309 310 310 311 310 310 308 307 306 306 307 309 317 323 324 322 318 318 316
314 313 319 314 313 313 312 321 315 310 311 312 312 311 311 311 311 311 310 310 309 308 307 306 302 300 307 309 310 310 310 310 311 311 311 311 309 307 306 306 307 313 320 322 324 321 317 316 315
314 323 317 316 313 314 314 319 317 310 310 313 312 312 311 311 311 311 310 310 309 308 306 305 300 303 310 310 310 311 311 312 312 310 309 308 309 307 306 306 307 316 320 321 322 320 318 317 311
326 320 316 317 315 313 315 316 316 315 313 313 313 312 311 311 311 311 311 310 309 308 306 301 301 309 310 311 312 312 311 312 311 310 310 307 308 306 306 306 308 316 320 321 320 318 318 313 313
315 316 317 315 311 311 315 315 315 315 313 312 312 312 312 311 311 311 311 310 308 307 304 300 306 310 311 312 312 312 312 312 313 312 309 306 306 306 306 307 312 317 321 321 320 318 313 313 314
313 315 317 315 309 311 315 314 315 312 311 310 310 310 310 310 309 311 311 309 308 306 301 302 310 310 311 312 311 312 312 311 310 310 308 306 305 306 306 307 314 318 320 318 318 317 314 312 312
314 317 317 315 312 309 311 322 319 312 310 310 310 309 308 309 309 310 310 308 307 304 301 306 310 310 311 312 312 312 311 312 311 311 308 306 306 306 307 309 316 319 319 318 317 318 316 315 316
316 312 311 312 314 322 312 332 320 314 312 309 310 310 309 307 308 309 309 308 306 301 301 307 310 310 311 312 312 312 311 312 312 311 309 308 308 308 308 313 316 319 320 317 317 318 315 315 315
315 310 311 311 313 313 315 320 328 312 315 312 312 310 308 308 307 309 308 307 304 301 302 307 310 311 312 313 313 313 312 313 314 314 314 311 309 310 315 316 316 318 319 319 320 318 314 315 314
309 310 310 311 313 321 313 316 333 322 315 311 311 309 307 307 308 308 307 305 301 301 302 307 310 311 313 313 314 313 312 314 315 316 317 314 314 314 315 319 320 318 319 320 320 319 315 316 314
309 312 327 329 321 325 311 313 324 316 310 309 312 310 307 307 308 307 306 303 300 301 304 308 310 312 313 313 314 313 313 313 315 317 316 316 315 317 319 317 320 318 318 317 317 317 317 314 314
310 313 321 330 323 317 310 317 321 311 309 309 307 310 308 307 307 307 306 302 300 301 305 308 310 311 312 313 314 313 314 313 314 317 318 318 315 316 317 320 319 318 317 317 317 317 316 316 314
310 311 309 311 305 314 317 314 314 309 309 308 309 308 309 307 307 307 305 301 300 301 306 308 310 311 312 312 314 314 314 315 315 315 317 318 320 318 319 319 317 317 319 319 317 317 317 317 316
309 307 312 312 321 321 317 314 320 312 310 309 310 309 309 308 307 307 306 302 300 301 306 307 310 311 311 312 313 314 315 314 315 316 316 316 317 319 320 318 318 318 319 318 318 317 317 317 316
308 309 309 311 312 318 319 319 312 311 309 310 310 310 309 308 308 308 306 302 300 301 305 307 309 310 311 311 312 313 315 314 314 315 316 317 316 319 319 318 319 318 318 318 319 319 318 317 317
307 310 310 316 313 309 310 318 309 308 307 307 308 308 308 308 308 308 306 302 300 300 304 307 309 310 311 311 313 313 314 314 314 314 315 316 317 317 317 317 317 318 318 319 318 319 318 318 317
Wind_Speed
5 6 5 1 4 4 4 4 1 6 4 3 3 4 3 2 3 3 7 8 7 6 6 6 7 9 11 12 14 16 16 17 17 17 16 17 17 19 20 19 18 17 16 15 14 14 13 13 15
6 7 5 2 4 6 4 3 8 6 3 6 4 3 3 2 3 3 7 8 6 6 6 7 9 11 13 15 16 18 19 21 21 22 21 19 19 20 21 21 20 19 19 18 17 17 18 19 20
7 9 4 2 3 8 3 4 4 4 6 5 3 3 2 2 6 6 11 9 7 7 7 10 12 15 18 20 21 22 23 24 24 24 24 23 22 23 22 23 23 22 21 21 19 18 19 18 17
7 3 1 5 9 6 4 2 6 8 3 7 4 5 3 9 5 9 10 9 7 8 9 13 15 17 18 18 20 21 23 24 26 27 26 25 27 28 26 25 25 24 24 24 23 21 20 19 15
7 1 4 4 7 4 7 4 9 8 5 6 6 2 3 8 11 9 10 9 8 9 11 14 15 15 15 15 16 17 18 19 21 25 27 30 30 31 31 29 27 26 26 26 25 21 22 20 18
3 1 5 6 8 5 5 7 9 10 8 6 5 5 4 8 12 12 10 9 9 10 12 13 13 13 15 18 20 21 22 23 23 24 25 28 31 32 32 32 29 29 28 28 27 24 24 20 21
3 3 4 4 8 5 3 7 10 8 9 11 4 4 3 10 12 12 10 9 9 11 11 11 12 15 17 19 21 23 24 25 26 27 27 28 28 30 33 33 34 32 29 30 29 27 25 23 22
3 2 3 5 5 4 4 6 2 9 9 6 7 6 4 10 13 12 10 10 10 10 10 12 14 17 19 21 23 25 26 27 27 28 29 31 31 29 31 34 33 30 32 32 32 30 28 26 23
4 4 5 4 5 1 5 5 4 4 7 7 9 7 7 8 12 12 11 10 11 10 11 13 16 18 20 24 27 28 29 30 28 27 27 29 30 28 27 30 34 34 30 34 31 32 30 28 23
4 4 5 1 2 2 4 7 4 5 11 11 14 16 16 13 13 13 11 9 10 10 12 15 17 20 23 26 28 30 31 30 27 23 21 23 23 26 27 27 30 31 33 30 31 33 33 31 25
4 5 1 2 6 4 5 5 6 9 11 17 15 14 18 17 16 14 12 11 11 11 13 16 18 21 25 28 30 32 32 29 22 19 19 20 21 21 24 25 24 28 29 25 31 32 37 32 26
5 6 4 3 4 3 5 5 7 18 15 8 9 9 14 18 17 14 12 12 11 12 14 16 19 23 27 30 32 32 30 22 17 18 18 19 20 19 20 22 20 22 25 22 32 32 40 31 21
6 3 5 7 6 8 8 14 14 21 21 17 16 14 14 15 15 14 13 11 11 12 14 17 21 25 29 32 33 32 23 16 15 17 16 17 19 19 16 19 19 21 22 19 29 32 28 22 24
1 6 7 5 7 7 6 9 3 6 5 16 19 17 15 15 15 13 12 11 12 13 15 18 22 27 31 34 33 26 19 16 17 18 16 16 17 17 17 14 16 20 16 20 31 32 25 27 22
2 6 5 7 3 4 2 11 14 15 10 9 12 15 16 16 16 14 12 12 13 14 15 19 24 28 32 33 26 18 17 18 19 21 19 18 15 16 15 14 16 19 19 22 35 33 26 26 23
3 2 4 4 4 2 2 8 5 5 9 11 12 13 16 16 16 15 14 13 13 14 16 20 25 29 30 23 18 17 17 18 19 17 18 17 15 13 13 12 14 20 21 32 38 35 33 31 29
4 5 4 2 5 2 7 11 4 6 8 10 11 13 15 15 17 17 15 14 13 13 16 20 24 28 22 19 18 16 16 15 13 16 16 17 16 10 11 11 14 21 20 33 38 35 34 35 34
5 4 3 6 2 5 12 24 22 24 22 24 20 18 16 17 17 16 15 14 12 12 16 20 24 22 18 18 18 15 15 16 15 15 15 16 10 6 6 12 16 18 25 35 40 39 38 39 37
1 3 8 5 0 5 12 20 23 23 22 23 23 22 22 18 15 17 16 14 11 11 15 19 22 17 16 18 20 15 15 16 15 12 12 11 4 4 7 12 20 15 31 35 37 37 45 37 34
3 5 7 6 2 4 13 25 23 10 6 8 10 12 17 18 18 19 16 13 9 10 13 17 17 14 16 19 16 16 16 16 15 12 11 8 1 4 11 12 18 23 34 34 33 38 44 44 44
5 5 3 5 7 2 12 9 5 1 4 6 7 6 7 16 20 21 17 12 8 8 11 14 15 13 14 13 14 16 15 16 14 14 11 5 4 7 11 14 16 29 31 34 39 47 47 49 44
5 5 3 2 4 4 6 7 7 3 8 5 5 4 4 11 18 21 17 12 7 6 9 11 14 11 9 9 12 15 15 17 16 15 13 7 8 10 13 18 15 28 34 37 34 36 46 48 42
0 4 3 1 1 4 2 4 7 2 4 3 3 3 6 11 19 21 16 12 6 5 6 9 11 9 7 7 9 11 10 11 13 12 22 17 17 24 18 15 24 26 24 29 25 37 42 45 43
10 4 2 1 2 3 2 3 6 3 3 1 3 5 9 16 19 18 15 11 7 5 4 7 8 6 4 4 8 9 8 9 10 13 19 18 17 20 17 20 22 26 26 23 23 35 43 35 39
3 3 2 3 2 3 2 3 11 5 4 2 7 9 11 16 19 18 15 11 7 4 3 4 5 3 3 4 6 6 7 8 10 11 16 19 19 16 14 13 16 25 23 19 15 33 31 36 36
9 4 4 5 3 1 1 6 4 1 2 4 3 10 13 16 18 18 15 12 8 5 3 2 3 3 2 2 6 4 5 6 8 10 11 16 20 17 16 14 18 26 17 12 17 28 28 33 34
7 8 2 3 2 2 5 7 11 7 5 6 9 9 16 18 20 19 17 14 10 6 5 4 2 2 5 4 4 5 4 6 7 11 10 13 14 17 17 22 25 21 12 16 21 29 30 27 28
4 6 3 2 4 5 4 5 8 3 9 10 10 16 16 18 20 20 18 16 12 8 6 6 2 1 6 7 7 6 6 7 9 12 11 10 13 14 16 20 20 16 12 14 20 25 26 32 30
6 6 3 2 3 3 2 4 3 3 3 7 14 15 17 20 22 22 20 17 14 11 8 8 5 0 3 5 10 8 9 7 9 12 13 13 11 12 13 13 13 14 12 12 15 22 27 35 30
4 8 10 5 6 3 0 5 3 3 2 3 9 13 14 18 21 21 20 19 16 13 10 10 10 4 2 7 10 10 10 10 12 15 15 15 14 16 15 14 15 14 15 17 16 23 23 23 32
Wind_Direction
212 198 183 190 234 251 232 211 193 174 193 199 165 219 224 11 239 304 165 172 185 198 217 242 258 270 275 280 279 280 277 270 267 260 257 255 258 254 250 248 244 241 237 228 219 214 205 198 192
187 163 159 194 246 245 228 177 209 183 135 129 147 167 203 210 191 173 166 190 199 223 241 256 270 279 285 288 284 280 278 275 273 264 260 256 251 251 249 246 243 240 233 225 222 218 221 216 214
169 166 216 227 233 248 269 183 196 154 154 186 211 235 214 195 191 175 202 208 221 237 258 275 286 291 292 290 286 281 277 272 270 272 264 264 256 251 247 246 243 238 233 226 222 219 222 225 215
154 156 78 244 236 250 279 150 172 163 180 209 237 233 237 203 180 191 201 212 230 256 278 288 293 294 293 290 289 287 283 280 277 273 271 263 260 260 256 245 240 238 233 227 221 217 218 225 220
163 176 218 238 244 247 232 218 187 203 184 183 192 230 232 224 213 202 210 221 245 271 286 299 301 301 301 303 305 302 298 293 285 277 270 263 257 252 255 250 244 238 234 229 223 219 220 219 217
160 223 234 237 243 241 240 211 197 214 209 172 215 230 234 228 214 219 224 235 254 280 297 298 296 301 306 310 308 305 302 296 290 284 279 271 265 258 253 251 246 241 234 231 223 221 218 215 212
205 214 263 269 262 266 226 178 212 218 214 220 191 231 213 217 211 217 223 241 266 287 293 293 302 307 312 311 306 300 296 294 291 289 285 279 271 261 254 251 248 238 238 231 225 221 212 216 213
166 248 238 229 243 259 170 178 220 221 229 213 187 229 210 212 210 212 224 247 271 288 289 297 305 311 308 306 302 302 303 299 294 288 285 280 276 267 258 249 246 247 234 234 225 218 212 212 212
153 237 243 250 200 194 178 210 205 230 225 206 211 224 224 225 212 215 230 249 274 285 289 298 303 304 307 306 307 308 306 303 299 294 288 281 275 269 263 254 244 238 236 230 228 216 211 206 210
212 238 242 287 239 251 209 223 225 224 217 233 235 233 236 229 219 220 229 245 273 274 282 292 300 310 310 310 310 308 308 307 306 301 295 287 282 269 262 255 244 237 235 234 222 218 206 203 197
193 243 289 256 242 249 258 250 227 239 238 236 230 228 227 223 220 222 234 252 259 266 279 291 307 310 313 312 313 313 313 311 307 304 301 297 292 280 265 258 246 235 232 232 218 212 209 207 184
232 244 242 288 234 222 247 272 255 235 246 235 221 221 217 218 219 226 239 253 264 274 286 301 309 314 314 313 315 315 315 311 307 307 301 295 292 287 273 262 244 231 225 222 211 209 194 173 160
236 246 225 251 257 256 270 258 264 263 254 250 249 233 220 217 219 228 237 252 268 280 295 304 311 316 314 314 315 319 319 315 311 312 312 301 299 293 281 257 245 224 214 210 206 195 186 172 179
234 256 262 270 258 251 260 268 261 259 255 233 235 233 225 222 223 229 239 256 271 283 294 305 316 316 316 316 319 318 314 311 308 306 302 299 295 288 285 265 233 217 203 200 203 184 170 166 163
278 293 275 234 243 257 303 263 232 251 251 238 228 226 223 225 226 230 240 256 269 283 295 310 316 318 319 322 323 323 317 309 306 303 291 293 292 294 278 272 222 203 190 197 195 177 165 159 167
254 263 274 138 170 194 213 277 191 229 219 238 227 220 223 223 229 230 241 256 270 285 299 315 319 322 325 333 334 328 320 312 310 318 313 300 288 292 280 259 213 187 196 171 179 174 164 160 172
213 267 237 273 199 255 220 283 245 210 223 248 235 226 224 219 225 230 240 255 269 287 304 315 322 324 331 336 330 332 335 332 332 329 320 313 298 283 283 222 194 187 189 163 163 158 163 163 161
197 235 234 259 151 229 256 264 272 268 260 261 254 240 227 222 226 227 236 251 264 286 307 318 326 323 333 334 337 345 347 348 343 340 326 315 294 251 256 201 193 169 159 184 171 166 159 158 161
149 245 267 260 134 280 267 280 282 281 264 260 260 246 234 223 218 220 229 243 257 286 309 321 326 326 338 341 343 351 2 1 355 330 332 339 293 208 196 191 179 148 152 167 165 173 150 158 165
202 262 266 278 226 280 301 293 291 299 267 253 261 245 235 216 206 210 219 230 246 285 313 325 326 330 344 351 1 1 5 6 3 7 9 7 91 159 172 182 168 146 140 165 161 162 166 166 171
219 226 230 271 314 225 307 281 306 155 274 257 248 254 229 206 194 200 205 214 239 287 314 329 334 337 347 6 9 14 20 19 29 27 25 40 93 125 169 168 154 135 152 168 164 174 171 166 171
236 203 204 263 321 298 4 289 302 317 294 251 240 229 196 187 185 193 195 203 229 280 309 329 339 339 354 25 11 17 35 39 42 49 53 66 94 121 135 150 167 138 152 169 178 182 172 172 170
170 143 140 132 278 312 167 243 270 329 287 231 196 166 158 167 173 180 185 199 218 267 303 323 336 345 8 42 20 36 46 48 37 59 72 68 104 114 130 152 174 162 168 185 183 177 174 177 175
139 114 93 123 234 248 86 254 280 235 248 194 157 155 155 160 168 175 183 196 214 253 304 322 328 327 22 49 36 45 79 77 62 69 100 90 108 129 153 144 147 161 173 183 192 186 183 189 180
182 176 246 239 201 259 125 218 258 262 240 259 177 169 164 167 174 180 187 196 212 241 292 310 328 327 60 65 70 54 79 110 76 85 102 119 130 123 123 148 151 151 158 166 182 189 184 184 192
184 236 218 248 231 32 131 231 251 206 222 171 129 180 176 181 186 188 191 198 210 226 237 262 326 262 159 97 105 100 85 109 110 97 115 120 136 151 150 169 156 159 173 177 179 169 183 191 193
160 212 21 100 82 282 221 257 271 219 221 208 210 186 195 196 197 197 197 202 209 216 217 221 287 240 201 185 147 150 137 103 130 134 127 131 136 141 152 152 162 176 190 182 184 185 191 197 200
231 148 144 225 215 233 211 273 248 202 211 205 209 209 202 201 203 204 204 205 208 211 215 214 234 242 210 199 184 159 170 143 128 134 146 151 144 154 165 176 187 195 196 192 188 197 203 197 197
159 192 214 246 227 226 259 237 211 207 191 216 211 208 204 203 205 207 208 207 209 210 213 211 202 68 194 193 189 173 177 169 163 148 156 162 167 162 171 175 179 190 195 187 200 204 206 207 202
229 199 194 209 193 232 21 274 155 241 220 228 214 201 203 209 207 209 210 210 213 211 212 207 200 181 175 166 175 183 179 184 167 167 167 175 170 183 187 184 186 201 214 198 205 211 202 209 206